This demonstration page uses our WeatherBlox Daily Observations layout. Learn more.

Left ArrowRight Arrow

39.92423, -83.80882

Hourly Observations for March 14, 2017

Temp ( °F °C ) Dew Point ( °F °C ) Humidity (%) Winds ( mph kmh ) Pressure ( in mb ) Visibility ( mi km ) Precip ( " mm )
12:56 am 00:56 Cloudy with Light Snow 25 -3.9 22 -5.6 88 88 N 12 19 30.06 1018 7 11.26538 0 0.0254
2:56 am 02:56 Cloudy with Light Snow 24 -4.4 21 -6.1 88 88 N 14 22 30.05 1018 10 16.0934 0 0.0254
3:56 am 03:56 Cloudy 23 -5 19 -7.2 85 85 N 16 26 30.04 1017 9 14.48406 0 0.0254
4:56 am 04:56 Windy with Snow Likely 22 -5.6 18 -7.8 85 85 N 23 37 30.04 1017 9 14.48406 0 0.0254
5:56 am 05:56 Mostly Cloudy 19 -7.2 16 -8.9 88 88 N 16 26 30.05 1018 10 16.0934 0 0.0254
6:56 am 06:56 Cloudy 20 -6.7 16 -8.9 85 85 N 20 31 30.07 1018 10 16.0934 0 0
7:56 am 07:56 Windy with Snow Likely 20 -6.7 15 -9.4 81 81 N 20 31 30.09 1019 9 14.48406 0 0.0254
8:56 am 08:56 Cloudy with Light Snow 20 -6.7 15 -9.4 81 81 N 15 24 30.12 1020 9 14.48406 0 0.0254
9:56 am 09:56 Windy with Snow Likely 21 -6.1 15 -9.4 78 78 N 21 33 30.14 1021 7 11.26538 0 0.0254
10:56 am 10:56 Windy with Snow Likely 24 -4.4 16 -8.9 71 71 NNW 20 31 30.14 1021 9 14.48406 0 0.0254
11:56 am 11:56 Cloudy with Light Snow 24 -4.4 16 -8.9 71 71 N 17 28 30.14 1021 9 14.48406 0 0.0254
12:56 pm 12:56 Mostly Cloudy 24 -4.4 15 -9.4 68 68 N 15 24 30.14 1021 10 16.0934 0 0.0254
1:25 pm 13:25 Mostly Cloudy 25 -4 16 -9 69 69 N 15 24 30.18 1022 10 16.0934 0 0
1:56 pm 13:56 Cloudy 25 -3.9 15 -9.4 66 66 NNW 18 30 30.14 1021 10 16.0934 0 0
2:56 pm 14:56 Cloudy with Light Snow 24 -4.4 14 -10 65 65 N 17 28 30.15 1021 9 14.48406 0 0.0254
3:56 pm 15:56 Cloudy with Light Snow 23 -5 14 -10 68 68 NNW 16 26 30.16 1021 9 14.48406 0 0.0254
4:56 pm 16:56 Mostly Cloudy with Light Snow 23 -5 15 -9.4 72 72 NNW 14 22 30.16 1021 7 11.26538 0 0.0254
5:07 pm 17:07 Cloudy with Light Snow 23 -5 16 -9 74 74 NNW 15 24 30.18 1022 6 9.65604 0 0.0254
5:44 pm 17:44 Windy with Snow Likely 23 -5 16 -9 74 74 NNW 22 35 30.21 1023 1.75 2.816345 0 0.0254
5:49 pm 17:49 Cloudy with Light Snow 21 -6 16 -9 80 80 NNW 18 30 30.21 1023 1 1.60934 0 0.0254
5:56 pm 17:56 Mostly Cloudy with Light Snow 21 -6.1 16 -8.9 81 81 NNW 15 24 30.16 1022 1.25 2.011675 0 0.0254
5:59 pm 17:59 Mostly Cloudy with Light Snow 21 -6 16 -9 80 80 NNW 13 20 30.21 1023 2.5 4.02335 0 0.0254
6:03 pm 18:03 Mostly Cloudy with Light Snow 23 -5 16 -9 74 74 NW 15 24 30.21 1023 9 14.48406 0 0.0254
6:17 pm 18:17 Mostly Cloudy with Light Snow 21 -6 16 -9 80 80 NNW 18 30 30.21 1023 9 14.48406 0 0.0254
6:25 pm 18:25 Mostly Cloudy with Light Snow 21 -6 16 -9 80 80 NNW 16 26 30.21 1023 1.5 2.41401 0 0.0254
6:27 pm 18:27 Mostly Cloudy with Light Snow 21 -6 18 -8 86 86 NW 21 33 30.21 1023 1 1.60934 0 0.0254
6:35 pm 18:35 Mostly Cloudy with Light Snow 19 -7 16 -9 86 86 NNW 18 30 30.21 1023 1.25 2.011675 0 0.0254
6:37 pm 18:37 Cloudy with Light Snow 19 -7 16 -9 86 86 NNW 18 30 30.21 1023 2 3.21868 0 0.0254
6:45 pm 18:45 Cloudy with Light Snow 19 -7 14 -10 79 79 NNW 13 20 30.21 1023 9 14.48406 0 0.0254
6:56 pm 18:56 Mostly Cloudy with Light Snow 21 -6.1 14 -10 74 74 NW 16 26 30.18 1022 10 16.0934 0 0.0254
7:03 pm 19:03 Mostly Cloudy with Light Snow 21 -6 12 -11 68 68 NNW 18 30 30.21 1023 9 14.48406 0 0.0254
7:42 pm 19:42 Mostly Cloudy 19 -7 12 -11 73 73 NNW 14 22 30.24 1024 10 16.0934 0 0.0254
7:56 pm 19:56 Mostly Cloudy 20 -6.7 12 -11.1 71 71 N 13 20 30.2 1023 10 16.0934 0 0.0254
8:56 pm 20:56 Clear 19 -7.2 7 -13.9 59 59 NNW 10 17 30.21 1023 10 16.0934 0 0
9:56 pm 21:56 Mostly Clear 17 -8.3 7 -13.9 64 64 NNW 10 17 30.22 1023 10 16.0934 0 0
10:56 pm 22:56 Clear 17 -8.3 5 -15 59 59 N 12 19 30.23 1024 10 16.0934 0 0
11:56 pm 23:56 Clear 14 -10 3 -16.1 61 61 NW 7 11 30.23 1024 10 16.0934 0 0

Powered by AerisWeather